Time,TemperatureF,DewpointF,PressureIn,WindDirection,WindDirectionDegrees,WindSpeedMPH,WindSpeedGustMPH,Humidity,HourlyPrecipIn,Conditions,Clouds,dailyrainin,SoftwareType,DateUTC
2013-04-05 00:00:00,68.9,21.4,27.35,SSW,203,0.0,0.7,17,0.00,,,0.00,WUHU216HW,2013-04-05 07:00:00,
2013-04-05 00:05:00,68.8,21.3,27.35,SW,225,0.2,0.9,17,0.00,,,0.00,WUHU216HW,2013-04-05 07:05:00,
2013-04-05 00:10:00,68.8,21.3,27.35,SE,135,0.4,0.9,17,0.00,,,0.00,WUHU216HW,2013-04-05 07:10:00,
2013-04-05 00:15:00,68.8,21.3,27.35,South,180,0.4,1.1,17,0.00,,,0.00,WUHU216HW,2013-04-05 07:15:00,
2013-04-05 00:20:00,68.6,21.2,27.35,SSE,158,0.0,1.1,17,0.00,,,0.00,WUHU216HW,2013-04-05 07:20:00,
2013-04-05 00:25:00,68.6,21.2,27.35,SE,135,0.0,1.6,17,0.00,,,0.00,WUHU216HW,2013-04-05 07:25:00,
2013-04-05 00:30:00,68.4,21.1,27.34,SSE,158,0.0,1.6,17,0.00,,,0.00,WUHU216HW,2013-04-05 07:30:00,
2013-04-05 00:35:00,68.2,20.9,27.34,SE,135,0.9,1.3,17,0.00,,,0.00,WUHU216HW,2013-04-05 07:35:00,
2013-04-05 00:40:00,67.9,22.2,27.35,SE,135,0.4,1.3,18,0.00,,,0.00,WUHU216HW,2013-04-05 07:40:00,
2013-04-05 00:45:00,67.7,22.1,27.35,SE,135,0.4,1.1,18,0.00,,,0.00,WUHU216HW,2013-04-05 07:45:00,
2013-04-05 00:50:00,67.5,21.9,27.35,SE,135,0.7,1.1,18,0.00,,,0.00,WUHU216HW,2013-04-05 07:50:00,
2013-04-05 00:55:00,67.3,21.7,27.35,SE,135,0.2,1.1,18,0.00,,,0.00,WUHU216HW,2013-04-05 07:55:00,
2013-04-05 01:00:00,67.0,21.4,27.35,SE,135,0.0,1.1,18,0.00,,,0.00,WUHU216HW,2013-04-05 08:00:00,
2013-04-05 01:05:00,66.6,21.1,27.35,SE,135,0.4,0.7,18,0.00,,,0.00,WUHU216HW,2013-04-05 08:05:00,
2013-04-05 01:10:00,66.4,21.0,27.35,ESE,113,0.9,1.8,18,0.00,,,0.00,WUHU216HW,2013-04-05 08:10:00,
2013-04-05 01:15:00,66.2,20.8,27.35,SE,135,1.1,1.8,18,0.00,,,0.00,WUHU216HW,2013-04-05 08:15:00,
2013-04-05 01:21:00,66.1,20.6,27.35,ESE,113,2.5,2.5,18,0.00,,,0.00,WUHU216HW,2013-04-05 08:21:00,
2013-04-05 01:26:00,65.9,18.9,27.34,East,90,0.9,2.5,17,0.00,,,0.00,WUHU216HW,2013-04-05 08:26:00,
2013-04-05 01:31:00,65.7,18.7,27.35,SE,135,1.1,2.5,17,0.00,,,0.00,WUHU216HW,2013-04-05 08:31:00,
2013-04-05 01:36:00,65.7,18.7,27.35,East,90,0.0,2.0,17,0.00,,,0.00,WUHU216HW,2013-04-05 08:36:00,
2013-04-05 01:41:00,65.5,18.6,27.35,ESE,113,1.1,1.8,17,0.00,,,0.00,WUHU216HW,2013-04-05 08:41:00,
2013-04-05 01:46:00,65.3,20.1,27.35,ESE,113,0.2,1.8,18,0.00,,,0.00,WUHU216HW,2013-04-05 08:46:00,
2013-04-05 01:51:00,65.2,19.9,27.35,ESE,113,2.0,2.0,18,0.00,,,0.00,WUHU216HW,2013-04-05 08:51:00,
2013-04-05 01:56:00,65.0,19.8,27.35,SE,135,0.9,2.2,18,0.00,,,0.00,WUHU216HW,2013-04-05 08:56:00,
2013-04-05 02:01:00,65.0,19.8,27.34,East,90,1.1,2.2,18,0.00,,,0.00,WUHU216HW,2013-04-05 09:01:00,
2013-04-05 02:06:00,64.8,19.6,27.35,ESE,113,0.7,1.8,18,0.00,,,0.00,WUHU216HW,2013-04-05 09:06:00,
2013-04-05 02:11:00,64.6,19.4,27.34,ENE,68,0.4,1.8,18,0.00,,,0.00,WUHU216HW,2013-04-05 09:11:00,
2013-04-05 02:16:00,64.4,19.4,27.34,ENE,68,0.7,1.8,18,0.00,,,0.00,WUHU216HW,2013-04-05 09:16:00,
2013-04-05 02:21:00,64.3,19.2,27.34,NNE,23,0.0,1.8,18,0.00,,,0.00,WUHU216HW,2013-04-05 09:21:00,
2013-04-05 02:26:00,64.1,19.1,27.34,ENE,68,0.9,1.1,18,0.00,,,0.00,WUHU216HW,2013-04-05 09:26:00,
2013-04-05 02:31:00,63.9,20.5,27.34,East,90,0.9,1.1,19,0.00,,,0.00,WUHU216HW,2013-04-05 09:31:00,
2013-04-05 02:36:00,63.9,20.5,27.34,ESE,113,1.1,1.8,19,0.00,,,0.00,WUHU216HW,2013-04-05 09:36:00,
2013-04-05 02:41:00,63.9,20.5,27.33,East,90,1.1,1.8,19,0.00,,,0.00,WUHU216HW,2013-04-05 09:41:00,
2013-04-05 02:46:00,64.1,20.6,27.33,East,90,0.9,1.8,19,0.00,,,0.00,WUHU216HW,2013-04-05 09:46:00,
2013-04-05 02:51:00,63.9,20.5,27.33,East,90,1.1,1.8,19,0.00,,,0.00,WUHU216HW,2013-04-05 09:51:00,
2013-04-05 02:56:00,63.9,20.5,27.33,ENE,68,1.1,2.0,19,0.00,,,0.00,WUHU216HW,2013-04-05 09:56:00,
2013-04-05 03:01:00,63.9,20.5,27.33,East,90,1.1,2.5,19,0.00,,,0.00,WUHU216HW,2013-04-05 10:01:00,
2013-04-05 03:06:00,63.7,20.3,27.33,East,90,0.7,2.5,19,0.00,,,0.00,WUHU216HW,2013-04-05 10:06:00,
2013-04-05 03:11:00,63.7,20.3,27.33,East,90,1.1,1.8,19,0.00,,,0.00,WUHU216HW,2013-04-05 10:11:00,
2013-04-05 03:16:00,63.7,20.3,27.33,ENE,68,0.7,2.0,19,0.00,,,0.00,WUHU216HW,2013-04-05 10:16:00,
2013-04-05 03:21:00,63.9,22.1,27.33,East,90,1.3,2.0,20,0.00,,,0.00,WUHU216HW,2013-04-05 10:21:00,
2013-04-05 03:26:00,64.1,22.2,27.33,ENE,68,2.5,2.5,20,0.00,,,0.00,WUHU216HW,2013-04-05 10:26:00,
2013-04-05 03:31:00,64.3,23.3,27.33,ESE,113,1.6,2.5,21,0.00,,,0.00,WUHU216HW,2013-04-05 10:31:00,
2013-04-05 03:36:00,64.3,23.3,27.33,East,90,0.4,2.2,21,0.00,,,0.00,WUHU216HW,2013-04-05 10:36:00,
2013-04-05 03:41:00,64.1,23.2,27.33,ENE,68,0.9,1.8,21,0.00,,,0.00,WUHU216HW,2013-04-05 10:41:00,
2013-04-05 03:46:00,64.1,23.2,27.33,ESE,113,0.2,1.8,21,0.00,,,0.00,WUHU216HW,2013-04-05 10:46:00,
2013-04-05 03:51:00,63.7,23.0,27.33,ESE,113,0.4,1.6,21,0.00,,,0.00,WUHU216HW,2013-04-05 10:51:00,
2013-04-05 03:56:00,63.4,22.6,27.33,ESE,113,1.3,3.1,21,0.00,,,0.00,WUHU216HW,2013-04-05 10:56:00,
2013-04-05 04:01:00,63.0,22.3,27.33,SE,135,1.6,3.1,21,0.00,,,0.00,WUHU216HW,2013-04-05 11:01:00,
2013-04-05 04:06:00,62.6,22.1,27.32,SE,135,0.4,3.1,21,0.00,,,0.00,WUHU216HW,2013-04-05 11:06:00,
2013-04-05 04:11:00,62.3,21.8,27.32,SE,135,2.0,2.9,21,0.00,,,0.00,WUHU216HW,2013-04-05 11:11:00,
2013-04-05 04:17:00,62.1,21.6,27.32,ESE,113,0.9,2.9,21,0.00,,,0.00,WUHU216HW,2013-04-05 11:17:00,
2013-04-05 04:22:00,61.7,21.3,27.32,ESE,113,1.1,2.5,21,0.00,,,0.00,WUHU216HW,2013-04-05 11:22:00,
2013-04-05 04:27:00,61.6,21.2,27.32,ESE,113,0.9,2.0,21,0.00,,,0.00,WUHU216HW,2013-04-05 11:27:00,
2013-04-05 04:32:00,61.4,21.0,27.32,ESE,113,0.4,2.0,21,0.00,,,0.00,WUHU216HW,2013-04-05 11:32:00,
2013-04-05 04:37:00,61.4,21.0,27.32,East,90,1.8,3.1,21,0.00,,,0.00,WUHU216HW,2013-04-05 11:37:00,
2013-04-05 04:42:00,61.2,20.9,27.33,ESE,113,1.1,3.1,21,0.00,,,0.00,WUHU216HW,2013-04-05 11:42:00,
2013-04-05 04:47:00,61.2,20.9,27.33,ESE,113,0.4,1.8,21,0.00,,,0.00,WUHU216HW,2013-04-05 11:47:00,
2013-04-05 04:52:00,61.2,20.9,27.32,ESE,113,1.8,2.5,21,0.00,,,0.00,WUHU216HW,2013-04-05 11:52:00,
2013-04-05 04:57:00,61.0,20.7,27.32,East,90,0.9,2.7,21,0.00,,,0.00,WUHU216HW,2013-04-05 11:57:00,
2013-04-05 05:02:00,61.0,20.7,27.32,East,90,1.6,2.7,21,0.00,,,0.00,WUHU216HW,2013-04-05 12:02:00,
2013-04-05 05:07:00,60.8,20.6,27.32,ENE,68,2.7,3.6,21,0.00,,,0.00,WUHU216HW,2013-04-05 12:07:00,
2013-04-05 05:12:00,60.8,20.6,27.32,ESE,113,1.1,3.6,21,0.00,,,0.00,WUHU216HW,2013-04-05 12:12:00,
2013-04-05 05:17:00,60.8,20.6,27.32,NE,45,0.4,2.7,21,0.00,,,0.00,WUHU216HW,2013-04-05 12:17:00,
2013-04-05 05:22:00,60.8,20.6,27.32,NE,45,0.4,2.5,21,0.00,,,0.00,WUHU216HW,2013-04-05 12:22:00,
2013-04-05 05:27:00,60.7,20.4,27.32,SE,135,1.1,2.5,21,0.00,,,0.00,WUHU216HW,2013-04-05 12:27:00,
2013-04-05 05:32:00,60.7,20.4,27.32,ESE,113,0.7,1.8,21,0.00,,,0.00,WUHU216HW,2013-04-05 12:32:00,
2013-04-05 05:37:00,60.8,20.6,27.32,ESE,113,1.8,1.8,21,0.00,,,0.00,WUHU216HW,2013-04-05 12:37:00,
2013-04-05 05:42:00,60.8,21.5,27.32,ENE,68,1.1,1.8,22,0.00,,,0.00,WUHU216HW,2013-04-05 12:42:00,
2013-04-05 05:47:00,60.5,20.3,27.33,ENE,68,0.2,1.8,21,0.00,,,0.00,WUHU216HW,2013-04-05 12:47:00,
2013-04-05 05:52:00,60.1,19.9,27.33,ENE,68,0.9,1.3,21,0.00,,,0.00,WUHU216HW,2013-04-05 12:52:00,
2013-04-05 05:57:00,59.8,20.6,27.33,East,90,1.1,1.6,22,0.00,,,0.00,WUHU216HW,2013-04-05 12:57:00,
2013-04-05 06:02:00,59.6,20.4,27.32,ESE,113,1.1,1.8,22,0.00,,,0.00,WUHU216HW,2013-04-05 13:02:00,
2013-04-05 06:07:00,59.4,20.3,27.32,SE,135,0.9,2.0,22,0.00,,,0.00,WUHU216HW,2013-04-05 13:07:00,
2013-04-05 06:12:00,59.4,20.3,27.32,SSE,158,1.8,2.0,22,0.00,,,0.00,WUHU216HW,2013-04-05 13:12:00,
2013-04-05 06:17:00,59.6,20.4,27.32,ESE,113,1.3,2.5,22,0.00,,,0.00,WUHU216HW,2013-04-05 13:17:00,
2013-04-05 06:22:00,59.6,20.4,27.32,ESE,113,1.8,2.5,22,0.00,,,0.00,WUHU216HW,2013-04-05 13:22:00,
2013-04-05 06:27:00,59.8,20.6,27.33,East,90,1.8,2.5,22,0.00,,,0.00,WUHU216HW,2013-04-05 13:27:00,
2013-04-05 06:32:00,59.8,20.6,27.33,ESE,113,1.1,2.5,22,0.00,,,0.00,WUHU216HW,2013-04-05 13:32:00,
2013-04-05 06:38:00,59.9,20.7,27.33,SE,135,1.1,1.8,22,0.00,,,0.00,WUHU216HW,2013-04-05 13:38:00,
2013-04-05 06:43:00,59.9,20.7,27.33,ESE,113,1.8,1.8,22,0.00,,,0.00,WUHU216HW,2013-04-05 13:43:00,
2013-04-05 06:48:00,60.1,20.9,27.33,SE,135,1.6,1.8,22,0.00,,,0.00,WUHU216HW,2013-04-05 13:48:00,
2013-04-05 06:53:00,60.1,21.9,27.34,West,270,0.7,1.8,23,0.00,,,0.00,WUHU216HW,2013-04-05 13:53:00,
2013-04-05 06:58:00,59.8,21.5,27.34,NW,315,0.2,1.8,23,0.00,,,0.00,WUHU216HW,2013-04-05 13:58:00,
2013-04-05 07:03:00,59.8,20.6,27.34,WNW,293,0.0,1.1,22,0.00,,,0.00,WUHU216HW,2013-04-05 14:03:00,
2013-04-05 07:08:00,59.4,20.3,27.34,WNW,293,0.0,1.1,22,0.00,,,0.00,WUHU216HW,2013-04-05 14:08:00,
2013-04-05 07:13:00,59.4,21.3,27.35,WNW,293,0.0,0.0,23,0.00,,,0.00,WUHU216HW,2013-04-05 14:13:00,
2013-04-05 07:18:00,59.6,22.3,27.35,WNW,293,0.0,0.4,24,0.00,,,0.00,WUHU216HW,2013-04-05 14:18:00,
2013-04-05 07:23:00,59.8,21.5,27.35,ENE,68,0.4,0.4,23,0.00,,,0.00,WUHU216HW,2013-04-05 14:23:00,
2013-04-05 07:28:00,60.1,21.9,27.35,NW,315,0.0,0.9,23,0.00,,,0.00,WUHU216HW,2013-04-05 14:28:00,
2013-04-05 07:33:00,60.3,23.0,27.36,NW,315,0.0,0.9,24,0.00,,,0.00,WUHU216HW,2013-04-05 14:33:00,
2013-04-05 07:38:00,60.5,22.1,27.36,WSW,248,0.0,1.1,23,0.00,,,0.00,WUHU216HW,2013-04-05 14:38:00,
2013-04-05 07:43:00,61.0,22.6,27.36,SSE,158,0.9,1.8,23,0.00,,,0.00,WUHU216HW,2013-04-05 14:43:00,
2013-04-05 07:48:00,61.6,22.2,27.36,ESE,113,0.2,1.8,22,0.00,,,0.00,WUHU216HW,2013-04-05 14:48:00,
2013-04-05 07:53:00,62.3,24.7,27.36,SE,135,0.4,1.8,24,0.00,,,0.00,WUHU216HW,2013-04-05 14:53:00,
2013-04-05 07:58:00,62.5,23.9,27.36,South,180,0.2,1.8,23,0.00,,,0.00,WUHU216HW,2013-04-05 14:58:00,
2013-04-05 08:03:00,62.6,23.9,27.36,SE,135,1.1,1.8,23,0.00,,,0.00,WUHU216HW,2013-04-05 15:03:00,
2013-04-05 08:08:00,63.0,24.3,27.36,SE,135,1.3,1.8,23,0.00,,,0.00,WUHU216HW,2013-04-05 15:08:00,
2013-04-05 08:13:00,63.0,24.3,27.35,ESE,113,2.0,2.0,23,0.00,,,0.00,WUHU216HW,2013-04-05 15:13:00,
2013-04-05 08:18:00,63.5,24.8,27.36,East,90,0.4,2.2,23,0.00,,,0.00,WUHU216HW,2013-04-05 15:18:00,
2013-04-05 08:23:00,64.1,25.2,27.35,ESE,113,1.3,2.2,23,0.00,,,0.00,WUHU216HW,2013-04-05 15:23:00,
2013-04-05 08:28:00,64.6,25.7,27.35,East,90,1.1,3.1,23,0.00,,,0.00,WUHU216HW,2013-04-05 15:28:00,
2013-04-05 08:33:00,65.3,26.2,27.35,ENE,68,1.8,3.1,23,0.00,,,0.00,WUHU216HW,2013-04-05 15:33:00,
2013-04-05 08:38:00,65.9,26.6,27.35,East,90,1.3,2.0,23,0.00,,,0.00,WUHU216HW,2013-04-05 15:38:00,
2013-04-05 08:43:00,66.4,27.1,27.35,ESE,113,0.9,2.0,23,0.00,,,0.00,WUHU216HW,2013-04-05 15:43:00,
2013-04-05 08:48:00,66.8,27.5,27.36,East,90,0.7,2.0,23,0.00,,,0.00,WUHU216HW,2013-04-05 15:48:00,
2013-04-05 08:53:00,67.1,27.7,27.35,SSE,158,1.1,2.2,23,0.00,,,0.00,WUHU216HW,2013-04-05 15:53:00,
2013-04-05 08:58:00,68.0,28.5,27.35,SE,135,1.1,2.2,23,0.00,,,0.00,WUHU216HW,2013-04-05 15:58:00,
2013-04-05 09:03:00,68.8,29.2,27.35,SE,135,2.5,2.5,23,0.00,,,0.00,WUHU216HW,2013-04-05 16:03:00,
2013-04-05 09:08:00,69.1,29.4,27.36,ESE,113,1.3,2.5,23,0.00,,,0.00,WUHU216HW,2013-04-05 16:08:00,
2013-04-05 09:13:00,69.3,29.6,27.36,ENE,68,1.1,2.5,23,0.00,,,0.00,WUHU216HW,2013-04-05 16:13:00,
2013-04-05 09:18:00,69.7,29.9,27.36,SE,135,0.0,2.0,23,0.00,,,0.00,WUHU216HW,2013-04-05 16:18:00,
2013-04-05 09:23:00,70.0,30.2,27.36,SW,225,1.1,1.6,23,0.00,,,0.00,WUHU216HW,2013-04-05 16:23:00,
2013-04-05 09:28:00,70.6,30.6,27.36,West,270,0.9,3.4,23,0.00,,,0.00,WUHU216HW,2013-04-05 16:28:00,
2013-04-05 09:33:00,71.1,30.1,27.35,West,270,0.0,3.4,22,0.00,,,0.00,WUHU216HW,2013-04-05 16:33:00,
2013-04-05 09:38:00,71.6,30.5,27.35,SSE,158,1.1,2.5,22,0.00,,,0.00,WUHU216HW,2013-04-05 16:38:00,
2013-04-05 09:43:00,71.6,30.5,27.35,North,0,0.0,1.8,22,0.00,,,0.00,WUHU216HW,2013-04-05 16:43:00,
2013-04-05 09:48:00,72.0,30.8,27.35,East,90,0.9,1.6,22,0.00,,,0.00,WUHU216HW,2013-04-05 16:48:00,
2013-04-05 09:53:00,72.4,31.2,27.35,ESE,113,1.8,2.5,22,0.00,,,0.00,WUHU216HW,2013-04-05 16:53:00,
2013-04-05 09:58:00,72.9,30.6,27.35,NNW,338,0.4,2.5,21,0.00,,,0.00,WUHU216HW,2013-04-05 16:58:00,
2013-04-05 10:03:00,73.4,31.1,27.35,East,90,0.7,2.2,21,0.00,,,0.00,WUHU216HW,2013-04-05 17:03:00,
2013-04-05 10:08:00,73.6,31.2,27.35,SSE,158,2.7,2.7,21,0.00,,,0.00,WUHU216HW,2013-04-05 17:08:00,
2013-04-05 10:13:00,73.6,31.2,27.34,ESE,113,0.7,2.7,21,0.00,,,0.00,WUHU216HW,2013-04-05 17:13:00,
2013-04-05 10:18:00,73.8,31.3,27.35,SW,225,2.7,2.7,21,0.00,,,0.00,WUHU216HW,2013-04-05 17:18:00,
2013-04-05 10:23:00,74.0,31.5,27.35,NNW,338,1.6,2.7,21,0.00,,,0.00,WUHU216HW,2013-04-05 17:23:00,
2013-04-05 10:28:00,74.2,30.6,27.34,West,270,1.1,2.7,20,0.00,,,0.00,WUHU216HW,2013-04-05 17:28:00,
2013-04-05 10:33:00,74.5,29.3,27.34,WNW,293,0.2,2.5,19,0.00,,,0.00,WUHU216HW,2013-04-05 17:33:00,
2013-04-05 10:38:00,74.5,31.0,27.34,NW,315,0.7,2.5,20,0.00,,,0.00,WUHU216HW,2013-04-05 17:38:00,
2013-04-05 10:44:00,74.9,32.2,27.34,ESE,113,1.8,2.2,21,0.00,,,0.00,WUHU216HW,2013-04-05 17:44:00,
2013-04-05 10:49:00,75.6,30.2,27.33,SSE,158,0.4,2.7,19,0.00,,,0.00,WUHU216HW,2013-04-05 17:49:00,
2013-04-05 10:54:00,76.0,30.4,27.33,South,180,2.7,2.7,19,0.00,,,0.00,WUHU216HW,2013-04-05 17:54:00,
2013-04-05 10:59:00,76.7,31.0,27.33,NNE,23,0.9,4.0,19,0.00,,,0.00,WUHU216HW,2013-04-05 17:59:00,
2013-04-05 11:04:00,76.7,29.3,27.33,SE,135,1.8,4.0,18,0.00,,,0.00,WUHU216HW,2013-04-05 18:04:00,
2013-04-05 11:09:00,76.9,29.5,27.33,West,270,3.6,6.0,18,0.00,,,0.00,WUHU216HW,2013-04-05 18:09:00,
2013-04-05 11:14:00,77.2,28.1,27.33,WSW,248,2.7,6.0,17,0.00,,,0.00,WUHU216HW,2013-04-05 18:14:00,
2013-04-05 11:19:00,77.6,28.4,27.33,SW,225,1.6,5.6,17,0.00,,,0.00,WUHU216HW,2013-04-05 18:19:00,
2013-04-05 11:24:00,77.9,28.6,27.33,NE,45,2.7,5.6,17,0.00,,,0.00,WUHU216HW,2013-04-05 18:24:00,
2013-04-05 11:29:00,78.1,28.8,27.33,North,0,0.7,5.4,17,0.00,,,0.00,WUHU216HW,2013-04-05 18:29:00,
2013-04-05 11:34:00,78.1,28.8,27.33,SSW,203,2.2,3.4,17,0.00,,,0.00,WUHU216HW,2013-04-05 18:34:00,
2013-04-05 11:39:00,78.5,29.1,27.33,SW,225,3.1,3.8,17,0.00,,,0.00,WUHU216HW,2013-04-05 18:39:00,
2013-04-05 11:44:00,79.0,27.8,27.33,NNW,338,1.1,5.6,16,0.00,,,0.00,WUHU216HW,2013-04-05 18:44:00,
2013-04-05 11:49:00,79.4,28.2,27.33,West,270,2.0,5.6,16,0.00,,,0.00,WUHU216HW,2013-04-05 18:49:00,
2013-04-05 11:54:00,79.7,28.4,27.32,West,270,1.6,3.8,16,0.00,,,0.00,WUHU216HW,2013-04-05 18:54:00,
2013-04-05 11:59:00,80.5,29.1,27.32,WSW,248,4.3,4.5,16,0.00,,,0.00,WUHU216HW,2013-04-05 18:59:00,
2013-04-05 12:04:00,82.1,30.4,27.32,SE,135,0.7,4.5,16,0.00,,,0.00,WUHU216HW,2013-04-05 19:04:00,
2013-04-05 12:09:00,83.9,30.1,27.32,SW,225,1.8,4.3,15,0.00,,,0.00,WUHU216HW,2013-04-05 19:09:00,
2013-04-05 12:14:00,83.9,28.4,27.32,SSW,203,1.3,5.4,14,0.00,,,0.00,WUHU216HW,2013-04-05 19:14:00,
2013-04-05 12:19:00,83.7,26.6,27.32,SSW,203,1.6,5.4,13,0.00,,,0.00,WUHU216HW,2013-04-05 19:19:00,
2013-04-05 12:24:00,83.7,30.0,27.32,West,270,1.6,4.7,15,0.00,,,0.00,WUHU216HW,2013-04-05 19:24:00,
2013-04-05 12:29:00,83.9,26.6,27.31,West,270,3.4,4.5,13,0.00,,,0.00,WUHU216HW,2013-04-05 19:29:00,
2013-04-05 12:34:00,83.9,26.6,27.31,WNW,293,2.9,5.4,13,0.00,,,0.00,WUHU216HW,2013-04-05 19:34:00,
2013-04-05 12:40:00,83.3,26.3,27.31,NW,315,3.8,5.4,13,0.00,,,0.00,WUHU216HW,2013-04-05 19:40:00,
2013-04-05 12:45:00,83.5,28.1,27.31,WSW,248,4.0,4.9,14,0.00,,,0.00,WUHU216HW,2013-04-05 19:45:00,
2013-04-05 12:50:00,83.3,29.6,27.30,SW,225,2.5,4.9,15,0.00,,,0.00,WUHU216HW,2013-04-05 19:50:00,
2013-04-05 12:55:00,83.5,28.1,27.30,NNE,23,1.8,4.3,14,0.00,,,0.00,WUHU216HW,2013-04-05 19:55:00,
2013-04-05 13:00:00,83.3,29.6,27.30,WSW,248,2.5,4.0,15,0.00,,,0.00,WUHU216HW,2013-04-05 20:00:00,
2013-04-05 13:05:00,83.7,26.6,27.30,SSW,203,2.2,5.4,13,0.00,,,0.00,WUHU216HW,2013-04-05 20:05:00,
2013-04-05 13:10:00,83.9,26.6,27.29,East,90,1.1,5.4,13,0.00,,,0.00,WUHU216HW,2013-04-05 20:10:00,
2013-04-05 13:15:00,84.1,26.8,27.29,NNE,23,3.1,4.0,13,0.00,,,0.00,WUHU216HW,2013-04-05 20:15:00,
2013-04-05 13:20:00,84.4,27.1,27.28,West,270,2.0,4.7,13,0.00,,,0.00,WUHU216HW,2013-04-05 20:20:00,
2013-04-05 13:25:00,84.6,27.2,27.28,NNW,338,4.5,5.8,13,0.00,,,0.00,WUHU216HW,2013-04-05 20:25:00,
2013-04-05 13:30:00,84.6,27.2,27.28,East,90,1.1,5.8,13,0.00,,,0.00,WUHU216HW,2013-04-05 20:30:00,
2013-04-05 13:35:00,85.3,26.1,27.28,North,0,1.8,5.4,12,0.00,,,0.00,WUHU216HW,2013-04-05 20:35:00,
2013-04-05 13:40:00,85.3,26.1,27.28,NE,45,1.1,4.0,12,0.00,,,0.00,WUHU216HW,2013-04-05 20:40:00,
2013-04-05 13:45:00,85.0,25.7,27.27,NNW,338,4.3,4.3,12,0.00,,,0.00,WUHU216HW,2013-04-05 20:45:00,
2013-04-05 13:50:00,85.3,26.1,27.27,NW,315,3.4,4.7,12,0.00,,,0.00,WUHU216HW,2013-04-05 20:50:00,
2013-04-05 13:55:00,85.7,26.4,27.27,ESE,113,1.6,4.7,12,0.00,,,0.00,WUHU216HW,2013-04-05 20:55:00,
2013-04-05 14:00:00,86.9,27.4,27.27,NW,315,6.3,6.9,12,0.00,,,0.00,WUHU216HW,2013-04-05 21:00:00,
2013-04-05 14:05:00,86.8,25.5,27.26,WSW,248,4.0,9.6,11,0.00,,,0.00,WUHU216HW,2013-04-05 21:05:00,
2013-04-05 14:10:00,86.6,25.4,27.27,NW,315,3.8,9.6,11,0.00,,,0.00,WUHU216HW,2013-04-05 21:10:00,
2013-04-05 14:15:00,86.0,26.6,27.26,SE,135,3.1,8.5,12,0.00,,,0.00,WUHU216HW,2013-04-05 21:15:00,
2013-04-05 14:20:00,86.6,25.4,27.26,WNW,293,2.5,4.7,11,0.00,,,0.00,WUHU216HW,2013-04-05 21:20:00,
2013-04-05 14:25:00,86.4,25.2,27.25,WSW,248,4.7,5.8,11,0.00,,,0.00,WUHU216HW,2013-04-05 21:25:00,
2013-04-05 14:30:00,86.2,26.8,27.25,West,270,3.8,5.8,12,0.00,,,0.00,WUHU216HW,2013-04-05 21:30:00,
2013-04-05 14:35:00,86.6,27.1,27.25,North,0,5.4,5.4,12,0.00,,,0.00,WUHU216HW,2013-04-05 21:35:00,
2013-04-05 14:40:00,87.1,27.6,27.25,NNW,338,2.0,5.4,12,0.00,,,0.00,WUHU216HW,2013-04-05 21:40:00,
2013-04-05 14:45:00,87.3,27.6,27.25,West,270,3.1,7.4,12,0.00,,,0.00,WUHU216HW,2013-04-05 21:45:00,
2013-04-05 14:50:00,86.9,27.4,27.25,West,270,1.6,7.4,12,0.00,,,0.00,WUHU216HW,2013-04-05 21:50:00,
2013-04-05 14:56:00,87.5,27.8,27.24,SSW,203,4.9,7.4,12,0.00,,,0.00,WUHU216HW,2013-04-05 21:56:00,
2013-04-05 15:01:00,87.8,28.1,27.24,West,270,4.5,7.4,12,0.00,,,0.00,WUHU216HW,2013-04-05 22:01:00,
2013-04-05 15:06:00,88.2,26.6,27.24,NW,315,2.7,7.4,11,0.00,,,0.00,WUHU216HW,2013-04-05 22:06:00,
2013-04-05 15:11:00,88.2,26.6,27.24,WNW,293,3.4,7.4,11,0.00,,,0.00,WUHU216HW,2013-04-05 22:11:00,
2013-04-05 15:16:00,87.7,26.3,27.24,SE,135,5.6,9.2,11,0.00,,,0.00,WUHU216HW,2013-04-05 22:16:00,
2013-04-05 15:21:00,87.7,26.3,27.23,WNW,293,3.8,9.2,11,0.00,,,0.00,WUHU216HW,2013-04-05 22:21:00,
2013-04-05 15:26:00,88.0,26.6,27.23,NW,315,5.8,6.9,11,0.00,,,0.00,WUHU216HW,2013-04-05 22:26:00,
2013-04-05 15:31:00,88.0,26.6,27.23,SE,135,4.7,8.1,11,0.00,,,0.00,WUHU216HW,2013-04-05 22:31:00,
2013-04-05 15:36:00,87.8,26.4,27.23,WNW,293,4.7,8.1,11,0.00,,,0.00,WUHU216HW,2013-04-05 22:36:00,
2013-04-05 15:41:00,88.2,26.6,27.23,NNW,338,2.5,8.5,11,0.00,,,0.00,WUHU216HW,2013-04-05 22:41:00,
2013-04-05 15:46:00,88.0,26.6,27.23,NNW,338,4.0,8.5,11,0.00,,,0.00,WUHU216HW,2013-04-05 22:46:00,
2013-04-05 15:51:00,87.8,28.1,27.24,WSW,248,5.4,7.8,12,0.00,,,0.00,WUHU216HW,2013-04-05 22:51:00,
2013-04-05 15:56:00,88.2,28.4,27.24,SW,225,6.3,7.8,12,0.00,,,0.00,WUHU216HW,2013-04-05 22:56:00,
2013-04-05 16:01:00,88.4,26.7,27.23,SW,225,3.8,7.2,11,0.00,,,0.00,WUHU216HW,2013-04-05 23:01:00,
2013-04-05 16:06:00,87.7,28.0,27.23,WSW,248,3.8,8.3,12,0.00,,,0.00,WUHU216HW,2013-04-05 23:06:00,
2013-04-05 16:11:00,87.1,27.6,27.23,NNE,23,3.4,8.3,12,0.00,,,0.00,WUHU216HW,2013-04-05 23:11:00,
2013-04-05 16:16:00,87.1,27.6,27.23,SSW,203,5.1,7.6,12,0.00,,,0.00,WUHU216HW,2013-04-05 23:16:00,
2013-04-05 16:21:00,87.3,27.6,27.23,West,270,5.4,6.3,12,0.00,,,0.00,WUHU216HW,2013-04-05 23:21:00,
2013-04-05 16:26:00,87.3,25.9,27.23,WSW,248,4.0,8.9,11,0.00,,,0.00,WUHU216HW,2013-04-05 23:26:00,
2013-04-05 16:31:00,87.5,26.1,27.23,WNW,293,2.2,8.9,11,0.00,,,0.00,WUHU216HW,2013-04-05 23:31:00,
2013-04-05 16:36:00,87.1,27.6,27.23,NW,315,4.7,7.6,12,0.00,,,0.00,WUHU216HW,2013-04-05 23:36:00,
2013-04-05 16:41:00,86.8,27.3,27.23,NNW,338,5.4,10.1,12,0.00,,,0.00,WUHU216HW,2013-04-05 23:41:00,
2013-04-05 16:46:00,86.4,26.9,27.24,NW,315,2.5,10.1,12,0.00,,,0.00,WUHU216HW,2013-04-05 23:46:00,
2013-04-05 16:51:00,86.4,26.9,27.24,NE,45,5.1,9.2,12,0.00,,,0.00,WUHU216HW,2013-04-05 23:51:00,
2013-04-05 16:56:00,86.0,26.6,27.24,West,270,5.4,8.5,12,0.00,,,0.00,WUHU216HW,2013-04-05 23:56:00,
2013-04-05 17:01:00,86.2,26.8,27.24,NW,315,4.3,9.4,12,0.00,,,0.00,WUHU216HW,2013-04-06 00:01:00,
2013-04-05 17:06:00,86.0,26.6,27.24,West,270,4.0,9.4,12,0.00,,,0.00,WUHU216HW,2013-04-06 00:06:00,
2013-04-05 17:11:00,86.2,26.8,27.24,South,180,5.4,6.9,12,0.00,,,0.00,WUHU216HW,2013-04-06 00:11:00,
2013-04-05 17:16:00,86.0,26.6,27.24,NNW,338,5.4,6.5,12,0.00,,,0.00,WUHU216HW,2013-04-06 00:16:00,
2013-04-05 17:21:00,86.0,26.6,27.24,ENE,68,5.4,9.6,12,0.00,,,0.00,WUHU216HW,2013-04-06 00:21:00,
2013-04-05 17:26:00,85.7,26.4,27.24,South,180,3.6,9.6,12,0.00,,,0.00,WUHU216HW,2013-04-06 00:26:00,
2013-04-05 17:31:00,85.9,26.5,27.24,West,270,4.0,9.2,12,0.00,,,0.00,WUHU216HW,2013-04-06 00:31:00,
2013-04-05 17:36:00,85.9,26.5,27.25,NNW,338,3.1,6.3,12,0.00,,,0.00,WUHU216HW,2013-04-06 00:36:00,
2013-04-05 17:41:00,84.8,25.7,27.25,West,270,6.3,7.4,12,0.00,,,0.00,WUHU216HW,2013-04-06 00:41:00,
2013-04-05 17:46:00,84.2,25.2,27.25,NE,45,3.4,7.4,12,0.00,,,0.00,WUHU216HW,2013-04-06 00:46:00,
2013-04-05 17:51:00,83.9,24.9,27.25,WSW,248,2.7,7.2,12,0.00,,,0.00,WUHU216HW,2013-04-06 00:51:00,
2013-04-05 17:56:00,83.5,24.7,27.25,West,270,5.1,9.2,12,0.00,,,0.00,WUHU216HW,2013-04-06 00:56:00,
2013-04-05 18:01:00,83.2,26.1,27.24,SW,225,2.5,9.2,13,0.00,,,0.00,WUHU216HW,2013-04-06 01:01:00,
2013-04-05 18:06:00,83.2,26.1,27.25,SW,225,4.7,6.7,13,0.00,,,0.00,WUHU216HW,2013-04-06 01:06:00,
2013-04-05 18:11:00,83.0,26.0,27.25,NNW,338,2.7,6.9,13,0.00,,,0.00,WUHU216HW,2013-04-06 01:11:00,
2013-04-05 18:16:00,82.6,25.8,27.25,North,0,1.8,6.9,13,0.00,,,0.00,WUHU216HW,2013-04-06 01:16:00,
2013-04-05 18:21:00,82.4,25.6,27.25,West,270,2.5,6.7,13,0.00,,,0.00,WUHU216HW,2013-04-06 01:21:00,
2013-04-05 18:26:00,82.1,25.3,27.25,WSW,248,3.4,5.8,13,0.00,,,0.00,WUHU216HW,2013-04-06 01:26:00,
2013-04-05 18:31:00,81.7,28.5,27.25,West,270,3.1,5.8,15,0.00,,,0.00,WUHU216HW,2013-04-06 01:31:00,
2013-04-05 18:36:00,81.4,28.1,27.25,NW,315,4.7,8.1,15,0.00,,,0.00,WUHU216HW,2013-04-06 01:36:00,
2013-04-05 18:41:00,81.0,27.8,27.25,SE,135,4.7,8.1,15,0.00,,,0.00,WUHU216HW,2013-04-06 01:41:00,
2013-04-05 18:46:00,80.6,27.5,27.25,NW,315,3.4,7.2,15,0.00,,,0.00,WUHU216HW,2013-04-06 01:46:00,
2013-04-05 18:51:00,80.3,27.3,27.25,SE,135,4.0,5.6,15,0.00,,,0.00,WUHU216HW,2013-04-06 01:51:00,
2013-04-05 18:56:00,79.9,28.6,27.25,North,0,3.4,6.3,16,0.00,,,0.00,WUHU216HW,2013-04-06 01:56:00,
2013-04-05 19:01:00,79.7,28.4,27.25,NW,315,2.7,5.8,16,0.00,,,0.00,WUHU216HW,2013-04-06 02:01:00,
2013-04-05 19:06:00,79.6,28.3,27.25,East,90,2.5,5.8,16,0.00,,,0.00,WUHU216HW,2013-04-06 02:06:00,
2013-04-05 19:11:00,79.2,28.0,27.25,SW,225,3.4,5.8,16,0.00,,,0.00,WUHU216HW,2013-04-06 02:11:00,
2013-04-05 19:16:00,79.0,27.8,27.25,West,270,3.1,3.8,16,0.00,,,0.00,WUHU216HW,2013-04-06 02:16:00,
2013-04-05 19:21:00,78.8,27.7,27.25,WNW,293,1.1,3.6,16,0.00,,,0.00,WUHU216HW,2013-04-06 02:21:00,
2013-04-05 19:26:00,78.5,29.1,27.26,NNW,338,2.2,4.7,17,0.00,,,0.00,WUHU216HW,2013-04-06 02:26:00,
2013-04-05 19:32:00,78.1,28.8,27.26,WNW,293,1.8,4.7,17,0.00,,,0.00,WUHU216HW,2013-04-06 02:32:00,
2013-04-05 19:37:00,77.9,30.3,27.26,West,270,2.0,4.7,18,0.00,,,0.00,WUHU216HW,2013-04-06 02:37:00,
2013-04-05 19:42:00,77.8,30.2,27.27,NW,315,1.8,3.8,18,0.00,,,0.00,WUHU216HW,2013-04-06 02:42:00,
2013-04-05 19:47:00,77.4,31.6,27.27,WNW,293,1.3,3.4,19,0.00,,,0.00,WUHU216HW,2013-04-06 02:47:00,
2013-04-05 19:52:00,77.4,29.9,27.27,WSW,248,1.1,2.9,18,0.00,,,0.00,WUHU216HW,2013-04-06 02:52:00,
2013-04-05 19:57:00,77.0,31.3,27.27,SW,225,2.0,3.4,19,0.00,,,0.00,WUHU216HW,2013-04-06 02:57:00,
2013-04-05 20:02:00,76.7,31.0,27.27,West,270,1.1,3.4,19,0.00,,,0.00,WUHU216HW,2013-04-06 03:02:00,
2013-04-05 20:07:00,76.5,30.9,27.27,SW,225,1.1,3.4,19,0.00,,,0.00,WUHU216HW,2013-04-06 03:07:00,
2013-04-05 20:12:00,76.1,30.6,27.27,SW,225,0.9,3.4,19,0.00,,,0.00,WUHU216HW,2013-04-06 03:12:00,
2013-04-05 20:17:00,76.0,30.4,27.27,SSW,203,1.8,2.7,19,0.00,,,0.00,WUHU216HW,2013-04-06 03:17:00,
2013-04-05 20:22:00,75.6,31.8,27.27,SSW,203,1.1,2.7,20,0.00,,,0.00,WUHU216HW,2013-04-06 03:22:00,
2013-04-05 20:27:00,75.4,32.7,27.27,WSW,248,0.9,4.0,21,0.00,,,0.00,WUHU216HW,2013-04-06 03:27:00,
2013-04-05 20:32:00,75.1,32.4,27.28,West,270,1.3,4.0,21,0.00,,,0.00,WUHU216HW,2013-04-06 03:32:00,
2013-04-05 20:37:00,74.7,32.1,27.28,WNW,293,1.1,2.9,21,0.00,,,0.00,WUHU216HW,2013-04-06 03:37:00,
2013-04-05 20:42:00,74.3,31.8,27.28,West,270,1.6,2.9,21,0.00,,,0.00,WUHU216HW,2013-04-06 03:42:00,
2013-04-05 20:47:00,74.0,31.5,27.29,WSW,248,1.3,1.8,21,0.00,,,0.00,WUHU216HW,2013-04-06 03:47:00,
2013-04-05 20:52:00,73.6,31.2,27.29,WNW,293,1.1,2.2,21,0.00,,,0.00,WUHU216HW,2013-04-06 03:52:00,
2013-04-05 20:57:00,73.3,32.0,27.29,WSW,248,0.7,2.2,22,0.00,,,0.00,WUHU216HW,2013-04-06 03:57:00,
2013-04-05 21:00:00,73.1,30.8,27.29,WSW,248,1.1,2.0,21,0.00,,,0.00,WUHU216HW,2013-04-06 04:00:00,
2013-04-05 21:05:00,72.9,31.6,27.30,West,270,0.7,1.8,22,0.00,,,0.00,WUHU216HW,2013-04-06 04:05:00,
2013-04-05 21:10:00,72.5,31.3,27.30,WSW,248,0.0,1.8,22,0.00,,,0.00,WUHU216HW,2013-04-06 04:10:00,
2013-04-05 21:16:00,72.4,31.2,27.30,West,270,0.0,1.8,22,0.00,,,0.00,WUHU216HW,2013-04-06 04:16:00,
2013-04-05 21:21:00,72.0,30.8,27.30,West,270,0.4,1.1,22,0.00,,,0.00,WUHU216HW,2013-04-06 04:21:00,
2013-04-05 21:26:00,71.6,30.5,27.30,West,270,0.0,0.7,22,0.00,,,0.00,WUHU216HW,2013-04-06 04:26:00,
2013-04-05 21:31:00,71.3,30.3,27.30,WSW,248,0.2,1.1,22,0.00,,,0.00,WUHU216HW,2013-04-06 04:31:00,
2013-04-05 21:36:00,71.3,31.2,27.30,West,270,0.7,1.8,23,0.00,,,0.00,WUHU216HW,2013-04-06 04:36:00,
2013-04-05 21:41:00,71.3,31.2,27.31,West,270,0.7,2.0,23,0.00,,,0.00,WUHU216HW,2013-04-06 04:41:00,
2013-04-05 21:46:00,71.1,30.1,27.31,West,270,1.1,2.0,22,0.00,,,0.00,WUHU216HW,2013-04-06 04:46:00,
2013-04-05 21:51:00,70.9,31.0,27.31,WSW,248,0.2,1.8,23,0.00,,,0.00,WUHU216HW,2013-04-06 04:51:00,
2013-04-05 21:56:00,70.6,29.6,27.31,SW,225,0.4,1.3,22,0.00,,,0.00,WUHU216HW,2013-04-06 04:56:00,
2013-04-05 22:01:00,70.2,30.3,27.31,SSW,203,0.7,1.3,23,0.00,,,0.00,WUHU216HW,2013-04-06 05:01:00,
2013-04-05 22:06:00,69.8,30.1,27.31,WSW,248,0.9,1.6,23,0.00,,,0.00,WUHU216HW,2013-04-06 05:06:00,
2013-04-05 22:11:00,69.7,30.9,27.32,NW,315,0.4,1.6,24,0.00,,,0.00,WUHU216HW,2013-04-06 05:11:00,
2013-04-05 22:16:00,69.5,29.7,27.32,SSW,203,1.6,1.8,23,0.00,,,0.00,WUHU216HW,2013-04-06 05:16:00,
2013-04-05 22:21:00,69.5,30.7,27.32,WSW,248,0.2,2.0,24,0.00,,,0.00,WUHU216HW,2013-04-06 05:21:00,
2013-04-05 22:26:00,69.5,29.7,27.32,SSW,203,2.2,2.9,23,0.00,,,0.00,WUHU216HW,2013-04-06 05:26:00,
2013-04-05 22:31:00,69.7,29.9,27.32,West,270,1.8,3.1,23,0.00,,,0.00,WUHU216HW,2013-04-06 05:31:00,
2013-04-05 22:36:00,69.7,29.9,27.32,WSW,248,1.8,3.1,23,0.00,,,0.00,WUHU216HW,2013-04-06 05:36:00,
2013-04-05 22:41:00,69.5,29.7,27.32,WNW,293,0.9,2.5,23,0.00,,,0.00,WUHU216HW,2013-04-06 05:41:00,
2013-04-05 22:47:00,69.3,29.6,27.32,WSW,248,0.4,2.5,23,0.00,,,0.00,WUHU216HW,2013-04-06 05:47:00,
2013-04-05 22:52:00,69.1,29.4,27.32,WSW,248,1.1,2.5,23,0.00,,,0.00,WUHU216HW,2013-04-06 05:52:00,
2013-04-05 22:57:00,69.1,29.4,27.32,SW,225,0.4,2.5,23,0.00,,,0.00,WUHU216HW,2013-04-06 05:57:00,
2013-04-05 23:02:00,68.9,29.3,27.32,NW,315,0.2,2.5,23,0.00,,,0.00,WUHU216HW,2013-04-06 06:02:00,
2013-04-05 23:07:00,68.8,29.2,27.32,West,270,0.4,1.8,23,0.00,,,0.00,WUHU216HW,2013-04-06 06:07:00,
2013-04-05 23:12:00,68.8,29.2,27.33,WNW,293,0.0,1.8,23,0.00,,,0.00,WUHU216HW,2013-04-06 06:12:00,
2013-04-05 23:17:00,68.4,28.8,27.32,NW,315,1.1,1.1,23,0.00,,,0.00,WUHU216HW,2013-04-06 06:17:00,
2013-04-05 23:22:00,68.2,28.7,27.32,NNW,338,0.2,1.1,23,0.00,,,0.00,WUHU216HW,2013-04-06 06:22:00,
2013-04-05 23:27:00,67.9,28.4,27.32,NNW,338,0.0,1.1,23,0.00,,,0.00,WUHU216HW,2013-04-06 06:27:00,
2013-04-05 23:32:00,67.3,27.9,27.32,ESE,113,0.7,0.9,23,0.00,,,0.00,WUHU216HW,2013-04-06 06:32:00,
2013-04-05 23:37:00,67.3,27.9,27.32,ESE,113,0.2,0.9,23,0.00,,,0.00,WUHU216HW,2013-04-06 06:37:00,
2013-04-05 23:42:00,67.1,28.7,27.32,SE,135,0.2,0.7,24,0.00,,,0.00,WUHU216HW,2013-04-06 06:42:00,
2013-04-05 23:47:00,67.3,28.9,27.33,ESE,113,0.4,0.9,24,0.00,,,0.00,WUHU216HW,2013-04-06 06:47:00,
2013-04-05 23:52:00,67.3,27.9,27.33,SSE,158,1.3,1.3,23,0.00,,,0.00,WUHU216HW,2013-04-06 06:52:00,
2013-04-05 23:57:00,67.1,27.7,27.33,SE,135,0.4,1.3,23,0.00,,,0.00,WUHU216HW,2013-04-06 06:57:00,